Location: Fontevrault
(47.1823°N, 0.0493°E)
Time: 03:09:22
(UTC+00:00)

Uosat 12 SS-18 rocket - Pass Details

Date: 30 October 2021
Orbit: 579 x 1405 km, 64.6° (Epoch: 01 December)

Event Time Altitude Azimuth Distance (km) Brightness Sun altitude
Rises 20:04:19 0° 317° (NW) 3,702 8.8 -33.9°
Reaches altitude 10° 20:07:13 10° 330° (NNW) 2,886 7.9 -34.4°
Enters shadow 20:11:50 26° 12° (NNE) 2,123 6.7 -35.2°
